SCP
0 0 0 0 0 0 0 0 0 0 0 0 0 0 0 0 0 0 0 0 0 -0 -0 0 0 0 0 0 0 0 0 0 0 0 0 0 0 0 0 0 0 0 0 0
0 0 0 0 0 -0 0 0 0 0 -0 0 0 0 0 0 0 0 0 0 0 0 0 0 0 0 0 0 0 0 0 0 0 0 0 0 0 0 0 0 0 0 0 0
0 0 0 0 0 0 0 -0 0 0 0 0 0 0 0 0 0 0 0 0 0 0 0 0 0 0 0 0 0 0 0 0 0 0 0 0 0 0 0 0 0 0 0 0
0 0 0 0 0 0 0 0 0 0 0 0 -0 -0 -0 0 -0 -0 0 0 0 0 0 0 0 0 0 0 0 0 0 0 0 0 0 0 0 0 0 0 0 0 0 0
0 0 0 0 0 0 0 0 0 0 0 -0 -0 -0 -0 0 0 0 0 0 0 0 0 0 0 0 -0 -0 0 0 0 0 0 0 0 0 0 0 0 0 0 0 0 0
0 0 0 0 0 0 0 0 0 0 0 0 0 -0 -0 0 0 0 0 0 0 0 0 0 0 0 0 0 0 0 0 0 0 0 0 0 0 0 0 0 0 0 0 0
0 0 0 0 0 0 0 0 0 0 0 -0 -0 -0 -0 -0 -0 0 0 0 0 0 0 0 0 0 0 0 0 0 0 0 0 0 0 0 0 0 0 0 0 0 0 0
0 0 -0 0 0 0 0 0 -0 -0 -0 -0 0 -0 0 0 -0 -0 -0 -0 0 0 -0 0 0 0 0 0 0 0 0 0 0 0 0 0 0 0 0 0 0 0 0 0
0 0 0 0 0 0 0 -0 0 0 0 0 0 -0 -0 -0 -0 0 -0 0 0 0 0 0 0 0 0 0 0 0 0 0 0 0 0 0 0 0 0 0 0 0 0 0
0 0 0 -0 0 0 0 0 0 0 0 0 0 -0 0 -0 -0 0 0 0 0 0 0 0 0 0 0 0 0 0 0 0 0 0 0 0 0 0 0 0 0 0 0 0
-0 -0 -0 0 -0 -0 -0 0 0 0 0 0 -0 0 0 0 0 0 0 0 0 0 0 0 0 0 0 0 0 0 0 0 0 0 0 0 0 0 0 0 0 0 0 0
-0 -0 -0 0 0 -0 0 0 0 0 0 0 0 0 -0 0 0 0 0 0 0 0 0 -0 -0 -0 -0 0 0 -0 -0 0 0 0 0 0 0 0 0 0 0 0 0 0
0 -0 0 0 0 -0 0 0 -0 -0 0 0 0 -0 -0 0 0 0 0 0 0 0 0 0 0 0 -0 -0 -0 -0 -0 0 0 0 0 0 0 0 0 0 0 0 0 0
-0 -0 -0 -0 0 0 0 0 -0 0 0 0 0 -0 -0 0 0 0 0 0 0 0 0 0 0 0 0 0 0 0 -0 0 0 0 0 0 0 0 0 0 0 0 0 0
-0 -0 -0 -0 0 0 0 -0 -0 -0 0 0 -0 -0 0 0 0 0 0 0 0 0 0 0 0 0 0 0 0 -0 0 0 0 0 0 0 0 0 0 0 0 0 0 0
-0 -0 -0 -0 0 -0 -0 -0 -0 -0 -0 0 -0 -0 -0 0 0 0 0 0 0 0 0 0 0 0 0 0 0 -0 0 0 -0 -0 -0 0 0 0 0 0 0 0 0 0
-0 -0 -0 0 -0 0 -0 -0 -0 -0 0 0 -0 -0 0 -0 0 0 0 0 0 0 0 0 0 0 0 0 0 -0 -0 -0 -0 0 0 0 0 0 0 0 0 0 0 0
-0 -0 -0 0 0 -0 -0 -0 0 -0 -0 0 0 -0 -0 0 -0 -0 0 0 0 0 0 0 0 0 0 0 0 0 0 0 0 0 0 0 0 0 0 0 0 0 0 0
-0 -0 0 0 0 -0 0 -0 0 0 -0 -0 0 -0 -0 0 0 -0 0 0 -0 0 0 0 0 0 0 0 0 0 0 0 0 0 0 0 0 0 0 0 0 0 0 0
-0 -0 0 0 0 -0 0 -0 0 0 0 -0 -0 0 -0 -0 0 -0 0 0 0 0 0 0 0 0 0 0 0 0 0 0 0 0 0 0 0 0 0 0 0 0 0 0
-0 -0 -0 0 0 0 0 0 0 0 0 0 -0 -0 0 0 0 0 0 -0 -0 -0 0 -0 0 0 0 0 0 0 0 0 0 0 0 0 0 0 0 0 0 0 0 0
-0 -0 0 0 0 0 0 0 0 0 0 0 0 -0 -0 -0 0 -0 0 0 0 -0 0 0 0 -0 0 0 0 0 0 0 0 0 0 0 0 0 0 0 0 0 0 0
-0 0 0 0 0 -0 0 0 0 0 0 0 0 -0 0 -0 0 -0 -0 -0 -0 -0 0 0 -0 -0 -0 -0 0 0 0 0 0 0 0 0 0 0 0 0 0 0 0 0
0 0 -0 0 -0 0 -0 -0 0 0 0 0 0 0 -0 0 -0 -0 -0 -0 -0 -0 -0 -0 -0 -0 -0 -0 0 0 0 0 0 0 0 0 0 0 0 0 0 0 0 0
0 0 -0 -0 0 -0 0 0 0 -0 -0 -0 0 0 0 0 -0 -0 -0 -0 -0 -0 -0 -0 -0 -0 -0 -0 -0 -0 -0 0 0 0 0 0 0 0 0 0 0 0 0 0
0 -0 -0 -0 -0 -0 -0 0 -0 -0 -0 -0 -0 -0 0 -0 -0 -0 -0 -0 -0 -0 -0 -0 -0 -0 -0 -0 -0 -0 -0 -0 0 0 0 0 0 0 0 0 0 0 0 0
0 0 -0 -0 -0 -0 -0 -0 -0 -0 -0 -0 0 -0 -0 -0 -0 -0 -0 -0 -0 -0 -0 -0 -0 -0 -0 -0 -0 -0 -0 0 0 0 0 0 0 0 0 0 0 0 0 0
Wind_Speed_500mb
13 18 17 18 23 21 16 28 15 19 21 8 12 11 17 38 48 43 43 45 44 40 42 37 36 40 39 43 42 30 43 69 69 65 61 60 59 57 54 52 54 58 57 60
9 20 15 17 11 17 14 11 19 25 23 7 15 18 23 39 44 48 55 58 58 54 44 42 38 35 40 43 41 42 46 45 48 55 57 58 55 53 55 60 61 64 68 70
9 8 16 7 1 4 8 11 9 10 7 12 18 16 25 39 52 56 63 63 62 46 49 52 51 52 57 58 53 50 50 55 65 68 74 76 72 71 72 70 69 67 70 68
7 10 5 5 9 11 20 23 8 10 13 21 31 48 51 56 63 63 58 58 56 72 83 90 89 88 86 88 89 84 78 75 73 80 81 79 74 71 68 67 72 72 74 78
3 3 12 8 7 8 14 26 7 11 23 35 43 47 50 44 43 54 61 73 82 84 81 87 97 102 102 103 101 98 108 98 81 69 68 78 79 74 72 73 74 74 76 81
4 2 9 7 6 23 10 15 5 13 18 30 47 28 33 48 69 82 86 88 81 83 72 85 100 102 106 110 96 97 98 100 90 98 93 86 89 85 82 82 79 76 82 84
6 6 14 4 13 18 2 9 32 33 43 47 31 40 83 90 88 75 84 79 87 110 125 109 102 105 107 100 106 106 96 90 87 91 98 107 96 90 83 80 82 88 94 78
4 5 13 5 3 2 7 32 42 46 53 64 73 80 84 89 89 102 101 106 109 107 108 105 103 99 105 103 101 99 91 84 75 74 90 85 91 88 88 89 85 87 78 73
13 10 4 1 14 28 25 38 45 55 66 72 81 90 84 93 108 113 112 109 105 104 108 107 98 98 108 103 91 92 87 82 78 87 80 77 81 82 79 78 75 70 71 76
7 4 9 41 7 31 43 50 63 64 72 84 88 75 110 99 105 109 112 106 101 97 99 105 101 94 99 99 88 79 80 75 70 67 70 75 74 74 74 78 69 69 74 74
10 12 35 7 49 64 67 70 71 77 78 77 92 85 100 107 110 107 108 102 100 98 97 106 107 97 86 79 77 72 67 67 68 67 68 69 70 72 71 69 69 68 66 62
7 8 10 40 62 60 62 65 72 75 80 86 73 99 112 110 103 103 105 106 98 97 99 102 89 90 69 61 65 65 68 69 68 64 65 63 61 60 60 59 53 57 58 57
10 28 36 46 46 48 62 67 71 72 79 84 84 104 107 105 101 102 97 92 86 85 74 60 37 10 34 41 55 60 63 60 58 63 61 56 56 56 58 60 57 53 50 51
11 26 24 35 54 62 60 64 65 68 73 87 88 107 110 104 102 93 91 84 66 61 48 47 32 18 17 38 51 55 59 60 60 55 55 52 50 49 49 47 49 51 49 51
23 30 37 50 58 56 59 64 68 73 81 93 92 105 106 106 108 101 87 67 47 44 42 37 28 17 22 41 43 53 63 59 52 48 44 43 43 45 47 44 44 40 39 47
28 32 44 48 50 54 59 67 67 73 83 93 106 112 113 93 88 90 82 62 52 52 42 34 24 18 17 28 36 44 43 45 46 47 45 38 37 39 36 35 34 36 41 45
28 39 46 52 56 60 61 61 63 71 77 90 102 110 108 109 99 104 93 73 54 50 42 31 18 14 8 19 27 35 40 41 40 37 40 38 33 33 36 36 33 29 32 35
19 24 33 42 51 57 60 59 64 70 75 84 97 105 98 104 105 104 92 86 70 69 36 33 18 13 13 13 19 23 24 30 34 38 36 35 38 34 31 30 28 21 18 29
19 25 29 35 45 52 54 58 63 65 76 78 94 101 98 93 95 98 90 94 85 86 70 55 26 24 22 19 9 1 15 24 25 35 38 40 38 37 35 36 40 34 39 55
22 21 27 32 42 49 55 52 59 64 72 75 87 94 104 111 112 105 91 79 86 79 76 63 53 48 30 32 28 34 36 20 38 38 45 51 48 48 43 37 39 45 53 54
26 24 29 41 48 50 47 46 55 64 70 78 84 87 91 96 101 104 109 98 88 72 60 62 44 42 39 22 28 33 42 46 38 46 39 41 43 48 48 41 40 41 55 66
26 31 36 41 51 54 48 44 48 58 67 76 83 89 94 105 105 93 87 90 89 74 59 43 42 41 34 31 37 34 32 33 36 33 32 44 49 52 63 65 63 66 72 68
33 35 36 40 53 53 50 46 44 53 61 69 77 84 86 89 96 105 104 94 83 75 59 45 36 33 33 32 32 34 33 32 43 46 47 49 53 57 56 53 56 55 54 57
35 36 35 37 49 57 61 57 51 50 52 60 69 74 81 92 93 97 88 84 79 73 65 48 37 37 35 37 36 33 31 30 30 37 42 47 50 48 48 49 46 46 46 46
28 33 35 39 52 54 55 58 56 56 54 58 65 70 75 76 83 89 96 91 83 75 68 59 45 35 35 33 32 31 27 24 21 23 35 41 40 43 47 50 48 47 46 45
25 30 32 36 44 47 49 57 62 59 58 57 60 65 72 78 79 83 89 94 94 84 75 65 58 48 40 35 29 26 22 19 21 25 32 39 40 38 39 42 44 43 42 48
18 23 27 33 41 47 47 52 58 61 57 54 56 60 66 75 81 83 84 89 93 91 82 72 61 51 46 41 34 28 19 13 13 20 29 37 37 38 39 39 40 44 46 47
Wind_Direction_500mb
239 250 250 265 277 286 217 237 227 262 271 310 307 305 316 330 336 334 328 321 313 296 279 284 275 260 266 261 255 250 246 237 246 240 231 229 232 241 248 255 265 269 270 277
270 264 267 283 299 309 19 324 250 257 274 225 298 313 313 319 324 316 312 307 301 296 287 280 277 270 257 256 257 265 264 259 242 241 241 242 245 250 256 262 264 263 266 271
269 310 306 302 104 289 270 248 260 254 253 328 318 306 305 302 302 294 295 292 294 281 285 284 282 278 279 282 278 267 263 265 257 251 252 253 257 259 261 262 267 269 274 282
275 347 258 237 187 255 292 297 268 302 321 316 305 302 295 288 281 287 288 284 275 287 290 292 291 287 285 283 281 276 273 267 265 256 253 252 257 260 260 265 272 277 283 289
202 211 282 231 232 281 311 297 167 314 315 302 301 299 292 298 294 294 288 280 279 278 284 286 282 281 284 282 279 275 271 270 259 257 257 251 249 250 258 265 272 277 285 290
143 215 253 234 244 323 324 279 105 317 295 307 320 303 298 302 295 290 287 282 277 274 274 279 271 269 271 270 268 262 263 264 260 253 252 250 250 256 261 265 268 275 280 284
169 230 280 225 305 324 237 258 326 326 309 303 297 285 292 298 296 299 298 288 282 281 284 275 267 263 255 257 259 258 258 261 256 244 246 248 250 251 253 258 270 275 277 271
172 218 274 42 13 146 262 327 320 312 304 299 294 298 295 297 302 302 298 291 287 282 277 271 265 260 254 251 254 251 249 248 241 241 242 240 243 245 252 259 264 268 263 260
181 225 215 189 283 298 318 312 305 306 303 299 300 304 301 306 301 302 300 295 291 287 283 278 269 258 250 253 251 241 242 241 243 239 240 240 241 245 245 249 262 254 251 254
17 310 324 313 311 335 330 318 320 317 314 313 305 314 310 306 306 305 304 302 299 292 283 278 273 259 250 252 242 232 228 231 232 235 233 234 234 236 246 257 246 245 247 247
265 311 334 92 323 327 326 330 324 322 314 314 317 313 315 310 310 309 307 309 308 300 292 285 287 266 256 245 233 228 223 221 224 222 229 234 239 243 241 238 242 245 242 240
247 342 277 294 316 330 323 319 316 317 318 320 320 319 318 315 314 313 315 320 316 312 309 306 290 259 245 229 220 218 215 216 216 224 226 230 231 231 232 238 241 244 246 244
277 305 299 314 320 319 316 316 323 324 323 323 317 322 322 318 318 322 325 329 331 332 338 355 21 215 219 210 201 204 206 208 212 212 221 225 218 226 229 231 236 233 235 233
334 325 316 327 320 326 328 332 329 330 328 328 320 328 328 326 331 334 337 343 347 360 359 15 42 74 148 172 183 191 197 207 206 203 213 217 225 222 222 225 228 234 229 223
341 332 320 326 332 331 332 338 336 333 334 330 331 331 334 336 338 340 348 354 10 23 33 20 34 77 130 157 177 183 189 198 202 202 208 212 216 218 224 229 232 231 231 229
329 333 335 339 334 338 337 343 336 334 338 337 334 336 338 339 341 351 359 13 21 22 31 38 35 38 127 163 180 184 192 202 203 202 204 207 208 210 210 213 220 227 235 238
341 344 349 342 343 342 340 339 341 340 341 341 338 339 346 348 355 5 11 17 24 29 30 38 52 81 97 130 153 171 184 191 194 198 203 197 194 204 206 211 218 228 236 237
337 338 340 346 347 343 344 351 352 354 354 348 344 346 349 357 356 3 11 14 30 44 58 54 59 87 109 134 149 158 169 182 189 190 194 198 192 187 195 196 206 203 193 160
336 341 344 352 357 354 353 355 359 1 4 355 357 356 353 358 3 10 18 23 32 31 41 56 75 70 79 86 53 23 178 163 162 158 170 179 183 187 189 192 172 158 142 155
349 346 343 348 5 3 358 359 0 4 9 1 3 6 3 8 12 15 15 20 24 23 39 71 70 81 108 89 94 108 124 133 132 124 155 162 163 164 165 168 161 164 158 161
346 349 355 8 7 7 6 7 3 6 11 12 9 11 4 9 14 20 22 22 27 44 55 72 87 83 97 110 114 116 124 132 130 138 136 146 143 141 140 140 149 149 170 168
30 35 23 17 10 9 13 12 10 9 13 16 17 17 15 18 16 20 23 20 26 36 49 58 57 62 94 109 112 115 118 127 134 134 136 138 142 143 143 149 151 144 138 146
43 34 24 19 12 16 19 17 18 14 15 18 18 18 20 22 21 20 19 21 29 35 46 56 64 56 66 85 104 110 122 131 146 150 155 151 151 151 151 150 144 143 143 147
39 33 27 24 17 22 22 21 24 21 19 21 23 21 23 19 27 27 27 25 30 37 41 57 69 72 70 73 78 89 104 121 143 150 155 153 153 152 152 151 149 147 148 153
38 30 27 26 24 20 20 20 23 23 22 22 24 25 26 27 26 25 28 29 29 33 36 40 58 68 69 78 88 91 96 100 112 142 158 160 156 152 151 153 156 159 158 158
38 30 28 30 28 22 22 23 27 25 24 24 24 24 27 29 28 29 29 32 32 29 30 33 37 45 51 58 69 83 87 108 122 141 152 158 157 164 164 163 161 162 163 167
40 28 26 28 25 22 25 27 30 29 29 26 26 24 25 27 28 29 30 30 33 31 27 27 27 30 34 42 45 52 68 95 137 163 175 176 172 169 170 170 170 171 170 170
Wind_Speed_850mb
13 18 17 18 23 21 16 28 15 19 21 8 12 11 17 38 48 43 43 45 44 40 42 37 36 40 39 43 42 30 43 69 69 65 61 60 59 57 54 52 54 58 57 60
9 20 15 17 11 17 14 11 19 25 23 7 15 18 23 39 44 48 55 58 58 54 44 42 38 35 40 43 41 42 46 45 48 55 57 58 55 53 55 60 61 64 68 70
9 8 16 7 1 4 8 11 9 10 7 12 18 16 25 39 52 56 63 63 62 46 49 52 51 52 57 58 53 50 50 55 65 68 74 76 72 71 72 70 69 67 70 68
7 10 5 5 9 11 20 23 8 10 13 21 31 48 51 56 63 63 58 58 56 72 83 90 89 88 86 88 89 84 78 75 73 80 81 79 74 71 68 67 72 72 74 78
3 3 12 8 7 8 14 26 7 11 23 35 43 47 50 44 43 54 61 73 82 84 81 87 97 102 102 103 101 98 108 98 81 69 68 78 79 74 72 73 74 74 76 81
4 2 9 7 6 23 10 15 5 13 18 30 47 28 33 48 69 82 86 88 81 83 72 85 100 102 106 110 96 97 98 100 90 98 93 86 89 85 82 82 79 76 82 84
6 6 14 4 13 18 2 9 32 33 43 47 31 40 83 90 88 75 84 79 87 110 125 109 102 105 107 100 106 106 96 90 87 91 98 107 96 90 83 80 82 88 94 78
4 5 13 5 3 2 7 32 42 46 53 64 73 80 84 89 89 102 101 106 109 107 108 105 103 99 105 103 101 99 91 84 75 74 90 85 91 88 88 89 85 87 78 73
13 10 4 1 14 28 25 38 45 55 66 72 81 90 84 93 108 113 112 109 105 104 108 107 98 98 108 103 91 92 87 82 78 87 80 77 81 82 79 78 75 70 71 76
7 4 9 41 7 31 43 50 63 64 72 84 88 75 110 99 105 109 112 106 101 97 99 105 101 94 99 99 88 79 80 75 70 67 70 75 74 74 74 78 69 69 74 74
10 12 35 7 49 64 67 70 71 77 78 77 92 85 100 107 110 107 108 102 100 98 97 106 107 97 86 79 77 72 67 67 68 67 68 69 70 72 71 69 69 68 66 62
7 8 10 40 62 60 62 65 72 75 80 86 73 99 112 110 103 103 105 106 98 97 99 102 89 90 69 61 65 65 68 69 68 64 65 63 61 60 60 59 53 57 58 57
10 28 36 46 46 48 62 67 71 72 79 84 84 104 107 105 101 102 97 92 86 85 74 60 37 10 34 41 55 60 63 60 58 63 61 56 56 56 58 60 57 53 50 51
11 26 24 35 54 62 60 64 65 68 73 87 88 107 110 104 102 93 91 84 66 61 48 47 32 18 17 38 51 55 59 60 60 55 55 52 50 49 49 47 49 51 49 51
23 30 37 50 58 56 59 64 68 73 81 93 92 105 106 106 108 101 87 67 47 44 42 37 28 17 22 41 43 53 63 59 52 48 44 43 43 45 47 44 44 40 39 47
28 32 44 48 50 54 59 67 67 73 83 93 106 112 113 93 88 90 82 62 52 52 42 34 24 18 17 28 36 44 43 45 46 47 45 38 37 39 36 35 34 36 41 45
28 39 46 52 56 60 61 61 63 71 77 90 102 110 108 109 99 104 93 73 54 50 42 31 18 14 8 19 27 35 40 41 40 37 40 38 33 33 36 36 33 29 32 35
19 24 33 42 51 57 60 59 64 70 75 84 97 105 98 104 105 104 92 86 70 69 36 33 18 13 13 13 19 23 24 30 34 38 36 35 38 34 31 30 28 21 18 29
19 25 29 35 45 52 54 58 63 65 76 78 94 101 98 93 95 98 90 94 85 86 70 55 26 24 22 19 9 1 15 24 25 35 38 40 38 37 35 36 40 34 39 55
22 21 27 32 42 49 55 52 59 64 72 75 87 94 104 111 112 105 91 79 86 79 76 63 53 48 30 32 28 34 36 20 38 38 45 51 48 48 43 37 39 45 53 54
26 24 29 41 48 50 47 46 55 64 70 78 84 87 91 96 101 104 109 98 88 72 60 62 44 42 39 22 28 33 42 46 38 46 39 41 43 48 48 41 40 41 55 66
26 31 36 41 51 54 48 44 48 58 67 76 83 89 94 105 105 93 87 90 89 74 59 43 42 41 34 31 37 34 32 33 36 33 32 44 49 52 63 65 63 66 72 68
33 35 36 40 53 53 50 46 44 53 61 69 77 84 86 89 96 105 104 94 83 75 59 45 36 33 33 32 32 34 33 32 43 46 47 49 53 57 56 53 56 55 54 57
35 36 35 37 49 57 61 57 51 50 52 60 69 74 81 92 93 97 88 84 79 73 65 48 37 37 35 37 36 33 31 30 30 37 42 47 50 48 48 49 46 46 46 46
28 33 35 39 52 54 55 58 56 56 54 58 65 70 75 76 83 89 96 91 83 75 68 59 45 35 35 33 32 31 27 24 21 23 35 41 40 43 47 50 48 47 46 45
25 30 32 36 44 47 49 57 62 59 58 57 60 65 72 78 79 83 89 94 94 84 75 65 58 48 40 35 29 26 22 19 21 25 32 39 40 38 39 42 44 43 42 48
18 23 27 33 41 47 47 52 58 61 57 54 56 60 66 75 81 83 84 89 93 91 82 72 61 51 46 41 34 28 19 13 13 20 29 37 37 38 39 39 40 44 46 47
Wind_Direction_850mb
239 250 250 265 277 286 217 237 227 262 271 310 307 305 316 330 336 334 328 321 313 296 279 284 275 260 266 261 255 250 246 237 246 240 231 229 232 241 248 255 265 269 270 277
270 264 267 283 299 309 19 324 250 257 274 225 298 313 313 319 324 316 312 307 301 296 287 280 277 270 257 256 257 265 264 259 242 241 241 242 245 250 256 262 264 263 266 271
269 310 306 302 104 289 270 248 260 254 253 328 318 306 305 302 302 294 295 292 294 281 285 284 282 278 279 282 278 267 263 265 257 251 252 253 257 259 261 262 267 269 274 282
275 347 258 237 187 255 292 297 268 302 321 316 305 302 295 288 281 287 288 284 275 287 290 292 291 287 285 283 281 276 273 267 265 256 253 252 257 260 260 265 272 277 283 289
202 211 282 231 232 281 311 297 167 314 315 302 301 299 292 298 294 294 288 280 279 278 284 286 282 281 284 282 279 275 271 270 259 257 257 251 249 250 258 265 272 277 285 290
143 215 253 234 244 323 324 279 105 317 295 307 320 303 298 302 295 290 287 282 277 274 274 279 271 269 271 270 268 262 263 264 260 253 252 250 250 256 261 265 268 275 280 284
169 230 280 225 305 324 237 258 326 326 309 303 297 285 292 298 296 299 298 288 282 281 284 275 267 263 255 257 259 258 258 261 256 244 246 248 250 251 253 258 270 275 277 271
172 218 274 42 13 146 262 327 320 312 304 299 294 298 295 297 302 302 298 291 287 282 277 271 265 260 254 251 254 251 249 248 241 241 242 240 243 245 252 259 264 268 263 260
181 225 215 189 283 298 318 312 305 306 303 299 300 304 301 306 301 302 300 295 291 287 283 278 269 258 250 253 251 241 242 241 243 239 240 240 241 245 245 249 262 254 251 254
17 310 324 313 311 335 330 318 320 317 314 313 305 314 310 306 306 305 304 302 299 292 283 278 273 259 250 252 242 232 228 231 232 235 233 234 234 236 246 257 246 245 247 247
265 311 334 92 323 327 326 330 324 322 314 314 317 313 315 310 310 309 307 309 308 300 292 285 287 266 256 245 233 228 223 221 224 222 229 234 239 243 241 238 242 245 242 240
247 342 277 294 316 330 323 319 316 317 318 320 320 319 318 315 314 313 315 320 316 312 309 306 290 259 245 229 220 218 215 216 216 224 226 230 231 231 232 238 241 244 246 244
277 305 299 314 320 319 316 316 323 324 323 323 317 322 322 318 318 322 325 329 331 332 338 355 21 215 219 210 201 204 206 208 212 212 221 225 218 226 229 231 236 233 235 233
334 325 316 327 320 326 328 332 329 330 328 328 320 328 328 326 331 334 337 343 347 360 359 15 42 74 148 172 183 191 197 207 206 203 213 217 225 222 222 225 228 234 229 223
341 332 320 326 332 331 332 338 336 333 334 330 331 331 334 336 338 340 348 354 10 23 33 20 34 77 130 157 177 183 189 198 202 202 208 212 216 218 224 229 232 231 231 229
329 333 335 339 334 338 337 343 336 334 338 337 334 336 338 339 341 351 359 13 21 22 31 38 35 38 127 163 180 184 192 202 203 202 204 207 208 210 210 213 220 227 235 238
341 344 349 342 343 342 340 339 341 340 341 341 338 339 346 348 355 5 11 17 24 29 30 38 52 81 97 130 153 171 184 191 194 198 203 197 194 204 206 211 218 228 236 237
337 338 340 346 347 343 344 351 352 354 354 348 344 346 349 357 356 3 11 14 30 44 58 54 59 87 109 134 149 158 169 182 189 190 194 198 192 187 195 196 206 203 193 160
336 341 344 352 357 354 353 355 359 1 4 355 357 356 353 358 3 10 18 23 32 31 41 56 75 70 79 86 53 23 178 163 162 158 170 179 183 187 189 192 172 158 142 155
349 346 343 348 5 3 358 359 0 4 9 1 3 6 3 8 12 15 15 20 24 23 39 71 70 81 108 89 94 108 124 133 132 124 155 162 163 164 165 168 161 164 158 161
346 349 355 8 7 7 6 7 3 6 11 12 9 11 4 9 14 20 22 22 27 44 55 72 87 83 97 110 114 116 124 132 130 138 136 146 143 141 140 140 149 149 170 168
30 35 23 17 10 9 13 12 10 9 13 16 17 17 15 18 16 20 23 20 26 36 49 58 57 62 94 109 112 115 118 127 134 134 136 138 142 143 143 149 151 144 138 146
43 34 24 19 12 16 19 17 18 14 15 18 18 18 20 22 21 20 19 21 29 35 46 56 64 56 66 85 104 110 122 131 146 150 155 151 151 151 151 150 144 143 143 147
39 33 27 24 17 22 22 21 24 21 19 21 23 21 23 19 27 27 27 25 30 37 41 57 69 72 70 73 78 89 104 121 143 150 155 153 153 152 152 151 149 147 148 153
38 30 27 26 24 20 20 20 23 23 22 22 24 25 26 27 26 25 28 29 29 33 36 40 58 68 69 78 88 91 96 100 112 142 158 160 156 152 151 153 156 159 158 158
38 30 28 30 28 22 22 23 27 25 24 24 24 24 27 29 28 29 29 32 32 29 30 33 37 45 51 58 69 83 87 108 122 141 152 158 157 164 164 163 161 162 163 167
40 28 26 28 25 22 25 27 30 29 29 26 26 24 25 27 28 29 30 30 33 31 27 27 27 30 34 42 45 52 68 95 137 163 175 176 172 169 170 170 170 171 170 170